TimeMDT,TemperatureF,Dew PointF,Humidity,Sea Level PressureIn,VisibilityMPH,Wind Direction,Wind SpeedMPH,Gust SpeedMPH,PrecipitationIn,Events,Conditions,WindDirDegrees,DateUTC
12:53 AM,43.0,34.0,71,29.67,10.0,SSE,26.5,36.8,N/A,,Clear,150,2013-10-03 06:53:00
1:53 AM,42.1,33.1,70,29.66,10.0,SSE,21.9,-,N/A,,Clear,150,2013-10-03 07:53:00
2:53 AM,39.9,32.0,73,29.68,10.0,South,12.7,-,N/A,,Clear,180,2013-10-03 08:53:00
3:53 AM,37.9,30.9,76,29.69,10.0,SSE,9.2,-,N/A,,Clear,160,2013-10-03 09:53:00
4:53 AM,37.0,30.9,79,29.69,10.0,South,6.9,-,N/A,,Partly Cloudy,170,2013-10-03 10:53:00
5:53 AM,36.0,30.9,82,29.73,10.0,NNW,9.2,-,N/A,,Clear,340,2013-10-03 11:53:00
6:53 AM,33.1,30.0,89,29.78,10.0,North,9.2,-,N/A,,Clear,360,2013-10-03 12:53:00
7:53 AM,35.1,30.9,85,29.77,10.0,WNW,6.9,-,N/A,,Clear,300,2013-10-03 13:53:00
8:53 AM,37.9,33.1,83,29.75,10.0,Variable,3.5,-,N/A,,Clear,0,2013-10-03 14:53:00
9:53 AM,41.0,34.0,76,29.71,10.0,South,3.5,-,N/A,,Clear,170,2013-10-03 15:53:00
10:53 AM,46.0,35.1,66,29.67,10.0,Calm,Calm,-,N/A,,Partly Cloudy,0,2013-10-03 16:53:00
11:53 AM,57.9,37.9,47,29.59,10.0,ESE,11.5,17.3,N/A,,Mostly Cloudy,120,2013-10-03 17:53:00
12:53 PM,59.0,36.0,42,29.58,10.0,SE,20.7,-,N/A,,Scattered Clouds,140,2013-10-03 18:53:00
1:53 PM,55.0,37.0,51,29.59,10.0,SE,17.3,28.8,N/A,,Mostly Cloudy,140,2013-10-03 19:53:00
2:53 PM,54.0,36.0,51,29.61,10.0,SE,11.5,23.0,N/A,,Overcast,130,2013-10-03 20:53:00
3:53 PM,53.1,39.0,59,29.61,10.0,East,15.0,-,N/A,,Mostly Cloudy,100,2013-10-03 21:53:00
4:53 PM,50.0,39.9,68,29.65,10.0,East,15.0,-,N/A,,Scattered Clouds,90,2013-10-03 22:53:00
5:08 PM,46.4,39.2,76,29.81,10.0,East,15.0,24.2,N/A,,Mostly Cloudy,80,2013-10-03 23:08:00
5:45 PM,44.6,39.2,81,29.82,10.0,East,17.3,20.7,N/A,,Overcast,80,2013-10-03 23:45:00
5:53 PM,44.1,39.0,82,29.70,10.0,ENE,18.4,-,N/A,,Overcast,70,2013-10-03 23:53:00
6:29 PM,42.8,39.2,87,29.82,7.0,East,19.6,-,0.00,,Overcast,80,2013-10-04 00:29:00
6:53 PM,42.1,39.0,89,29.75,8.0,East,16.1,-,0.00,,Overcast,80,2013-10-04 00:53:00
7:10 PM,42.8,37.4,81,29.84,10.0,East,15.0,-,N/A,,Overcast,80,2013-10-04 01:10:00
7:29 PM,42.8,39.2,87,29.85,10.0,NE,11.5,-,0.00,Rain,Light Rain,40,2013-10-04 01:29:00
7:40 PM,42.8,39.2,87,29.85,10.0,East,11.5,-,0.00,,Overcast,100,2013-10-04 01:40:00
7:53 PM,43.0,37.9,82,29.75,10.0,East,12.7,-,0.00,,Overcast,90,2013-10-04 01:53:00
8:13 PM,42.8,37.4,81,29.87,10.0,NE,12.7,-,N/A,,Overcast,50,2013-10-04 02:13:00
8:29 PM,39.2,35.6,87,29.90,10.0,NNW,24.2,33.4,N/A,,Overcast,340,2013-10-04 02:29:00
8:53 PM,33.1,32.0,96,29.84,9.0,North,19.6,28.8,0.00,Rain,Light Rain,360,2013-10-04 02:53:00
9:14 PM,33.8,30.2,87,29.91,6.0,North,19.6,-,0.01,Snow,Light Snow,360,2013-10-04 03:14:00
9:50 PM,32.0,30.2,93,29.89,2.5,North,24.2,28.8,0.01,Snow,Light Snow,360,2013-10-04 03:50:00
10:34 PM,32.0,30.2,93,29.89,1.2,North,13.8,24.2,0.00,Snow,Light Snow,350,2013-10-04 04:34:00
10:40 PM,32.0,30.2,93,29.88,2.0,North,16.1,24.2,0.00,Snow,Light Snow,350,2013-10-04 04:40:00
10:53 PM,32.0,30.9,96,29.81,3.0,North,11.5,21.9,0.00,Snow,Light Snow,350,2013-10-04 04:53:00
11:25 PM,32.0,30.2,93,29.91,2.0,NNW,13.8,-,0.00,Snow,Light Snow,340,2013-10-04 05:25:00
11:28 PM,32.0,30.2,93,29.91,1.8,NNW,13.8,-,0.00,Snow,Light Snow,340,2013-10-04 05:28:00
11:53 PM,30.9,30.0,96,29.74,1.2,North,16.1,-,0.02,Snow,Light Snow,360,2013-10-04 05:53:00